Location: ????????
(56.1167°N, 38.6333°E)
Time: 21:24:17
(UTC+00:00)

USA 215 - Pass Details

Date: 18 November 2025
Orbit: 1101 x 1106 km, 123.0° (Epoch: 02 December)

Event Time Altitude Azimuth Distance (km) Brightness Sun altitude
Rises 14:15:07 0° 128° (SE) 3,917 5.9 -8.6°
Reaches altitude 10° 14:17:39 10° 133° (SE) 2,962 5.3 -8.9°
Maximum altitude 14:24:05 58° 211° (SSW) 1,276 3.9 -9.7°
Drops below altitude 10° 14:30:34 10° 290° (WNW) 2,974 6.3 -10.6°
Sets 14:33:07 0° 295° (WNW) 3,934 6.9 -10.9°
